Regional Weather Roundup
Issued by NWS Northern Indiana

Home | Current Version | Previous Version | Graphics & Text | Print | Product List | Glossary On
Versions: 1 2 3 4 5 6 7 8 9 10 11 12 13 14 15 16 17 18 19 20 21 22 23 24 25 26 27 28 29 30 31 32 33 34 35 36 37 38 39 40 41 42 43 44 45 46 47 48 49 50
183
ASUS43 KIWX 270510
RWRIWX

KIWX WEATHER ROUNDUP
NATIONAL WEATHER SERVICE NORTHERN INDIANA
100 AM EDT FRI MAY 27 2016

NOTE: "FAIR" INDICATES FEW OR NO CLOUDS BELOW 12,000 FEET WITH NO
SIGNIFICANT WEATHER AND/OR OBSTRUCTIONS TO VISIBILITY.

* THESE STATIONS ARE NOT UNDER NWS QUALITY CONTROL. THEY ALSO MAY NOT
  REPORT WEATHER SUCH AS PRECIPITATION OR FOG.

INZ001>027-270600-
NORTHERN INDIANA

CITY           SKY/WX    TMP DP  RH WIND       PRES   REMARKS
GARY*          MOCLDY    74  72  93 S8G16     29.91F
VALPARAISO     CLOUDY    71  64  78 SW9       29.93F
MICHIGAN CITY* CLOUDY    70  64  83 S9        29.92F
LAPORTE*       PTCLDY    72  67  84 SW8       29.94F
KNOX*          PTCLDY    68  59  73 SW10      29.94S
SOUTH BEND     PTCLDY    70  64  81 SW9       29.93F
GOSHEN         CLEAR     69  60  73 S8        29.95R
MONTICELLO*    MOCLDY    67  61  81 S6        29.95F
LOGANSPORT*    PTCLDY    64  61  88 S5        29.96F
ROCHESTER*     PTCLDY    70  64  83 SW7       29.96F
WARSAW*        CLOUDY    68  63  83 SW3       29.96F
ANGOLA*          N/A     68  61  77 SW6       29.96S
FORT WAYNE     CLOUDY    67  61  81 SW8       29.98R
HUNTINGTON*    CLOUDY   N/A N/A N/A CALM      29.97F
PERU/GRISSOM   PTCLDY    66  64  94 SW6       29.95F
MARION*        CLOUDY    64  61  87 S5        29.99S

$$
INZ028>050-270600-
CENTRAL INDIANA

CITY           SKY/WX    TMP DP  RH WIND       PRES   REMARKS
LAFAYETTE      MOCLDY    66  62  87 CALM      29.95F
KOKOMO*        MOCLDY    66  59  77 S7        29.97F
MUNCIE*        CLOUDY    69  62  78 SW5       29.99S
INDIANAPOLIS   NOT AVBL

$$
MIZ043>046-050>051-056>058-064>065-071>073-077>080-270600-
SOUTHWEST LOWER MICHIGAN

CITY           SKY/WX    TMP DP  RH WIND       PRES   REMARKS
BATTLE CREEK   CLEAR     65  60  84 CALM      29.94S
BENTON HARBOR  MOCLDY    70  63  78 S5        29.91S
COLDWATER*     PTCLDY    70  61  72 SW5       29.95R
HILLSDALE*     PTCLDY    68  58  70 S5        29.96R
HOLLAND        CLOUDY    67  61  81 CALM      29.91S
GRAND RAPIDS   CLOUDY    67  62  84 SE7       29.91S
KALAMAZOO      CLEAR     67  61  81 S5        29.94R
STURGIS*       PTCLDY    66  59  78 S3        29.94S
THREE RIVERS*  FAIR      69  61  75 SW3       29.94S

$$
OHZ001>008-015>018-024>025-270600-
NORTHWEST OHIO

CITY           SKY/WX    TMP DP  RH WIND       PRES   REMARKS
WAUSEON*         N/A     70  70 100 SW8       29.96S
DEFIANCE       CLEAR     71  60  68 SW8       29.97S
FINDLAY        MOCLDY    69  60  73 S12       29.98S
TOLEDO EXPRESS CLOUDY    71  63  75 SW8       29.95S
TOLEDO METCALF CLOUDY    72  63  73 S10       29.97R
LIMA           PTCLDY    67  61  81 S9        30.00S

$$
AND FOR LAKE MICHIGAN COASTAL AND OPEN LAKE BUOY OBSERVATIONS

STATION/POSITION TEMP    WIND        PRES    VSBY  WAVE
                 AIR SEA DIR/SP/G                  HT/PER
                 (F)     (DEG/KT/KT) (MB)    (MI)  (FT/S)
CALUMET HARBOR    76     170/ 10/ 14 1012.3R
MICHIGAN CITY     74     170/ 12/ 14   N/A
BURNS HARBOR      72     190/ 17/ 20 1012.9F
SAINT JOSEPH      73     140/  2/  8 1013.2F
SOUTH LAKE BUOY   57 50  150/ 10/ 10 1011.5F         0
4 MI NW BRIDGMAN  67 63  170/  8/ 10   N/A           0
MICHIGAN CITY     67 59  200/ 10/ 12   N/A           1

$$
&&




USA.gov is the U.S. government's official web portal to all federal, state and local government web resources and services.